When you browse on this site, cookies collect data to enhance your experience and personalize the content and advertising you see.
Visit our Privacy Policy to learn more. By continuing to use the site, you agree to this use of cookies and data.
  • în România
  • Lista ţărilor
  • Pe 7 zile
  • Temperatura apei
  • Meteo pe hartă
  • Widget-uri
  • user-avatar
    Intrare

    Meteo pe oră la Ashtarak

    Astăzi, 3 Iunie, Miercuri

    Timp Temperatura Precipitaţii Vânt Presiune Umiditate
    00:00 +17°C° 0.6 mm 2 m/s 653 mmHg 69%
    01:00 +16°C° 0 mm 2 m/s 653 mmHg 69%
    02:00 +15°C° 0 mm 1 m/s 653 mmHg 69%
    03:00 +15°C° 0 mm 1 m/s 653 mmHg 69%
    04:00 +16°C° 0 mm 1 m/s 653 mmHg 65%
    05:00 +18°C° 0 mm 1 m/s 654 mmHg 62%
    06:00 +18°C° 0 mm 1 m/s 654 mmHg 58%
    07:00 +20°C° 0 mm 1 m/s 655 mmHg 52%
    08:00 +21°C° 0 mm 2 m/s 655 mmHg 46%
    09:00 +24°C° 0 mm 2 m/s 656 mmHg 40%
    10:00 +25°C° 0 mm 2 m/s 656 mmHg 38%
    11:00 +25°C° 0 mm 3 m/s 656 mmHg 36%
    12:00 +26°C° 0 mm 3 m/s 656 mmHg 34%
    13:00 +25°C° 0.5 mm 4 m/s 655 mmHg 40%
    14:00 +23°C° 0.5 mm 4 m/s 655 mmHg 47%
    15:00 +22°C° 0.5 mm 5 m/s 655 mmHg 53%
    16:00 +22°C° 0.5 mm 4 m/s 655 mmHg 55%
    17:00 +21°C° 0.5 mm 4 m/s 655 mmHg 57%
    18:00 +21°C° 0.5 mm 3 m/s 654 mmHg 58%
    19:00 +19°C° 0.1 mm 2 m/s 654 mmHg 61%
    20:00 +18°C° 0.1 mm 2 m/s 654 mmHg 64%
    21:00 +16°C° 0.1 mm 2 m/s 654 mmHg 67%
    22:00 +16°C° 0.1 mm 1 m/s 654 mmHg 67%
    23:00 +16°C° 0.1 mm 1 m/s 655 mmHg 66%

    Mâine, 4 Iunie, Joi

    Timp Temperatura Precipitaţii Vânt Presiune Umiditate
    00:00 +15°C° 0.1 mm 1 m/s 655 mmHg 66%
    01:00 +15°C° 0 mm 1 m/s 655 mmHg 66%
    02:00 +15°C° 0 mm 1 m/s 655 mmHg 66%
    03:00 +14°C° 0 mm 1 m/s 655 mmHg 67%
    04:00 +15°C° 0 mm 1 m/s 655 mmHg 64%
    05:00 +16°C° 0 mm 1 m/s 655 mmHg 61%
    06:00 +18°C° 0 mm 1 m/s 656 mmHg 59%
    07:00 +20°C° 0 mm 1 m/s 656 mmHg 51%
    08:00 +22°C° 0 mm 1 m/s 657 mmHg 44%
    09:00 +24°C° 0 mm 1 m/s 657 mmHg 37%
    10:00 +25°C° 0 mm 2 m/s 657 mmHg 35%
    11:00 +26°C° 0 mm 2 m/s 657 mmHg 33%
    12:00 +27°C° 0 mm 2 m/s 657 mmHg 31%
    13:00 +27°C° 0 mm 2 m/s 657 mmHg 31%
    14:00 +27°C° 0 mm 2 m/s 657 mmHg 31%
    15:00 +28°C° 0 mm 2 m/s 657 mmHg 31%
    16:00 +27°C° 0 mm 3 m/s 657 mmHg 34%
    17:00 +27°C° 0 mm 3 m/s 657 mmHg 37%
    18:00 +26°C° 0 mm 3 m/s 657 mmHg 40%
    19:00 +24°C° 0 mm 3 m/s 657 mmHg 40%
    20:00 +21°C° 0 mm 3 m/s 657 mmHg 41%
    21:00 +19°C° 0 mm 3 m/s 657 mmHg 41%
    22:00 +18°C° 0 mm 2 m/s 657 mmHg 41%
    23:00 +17°C° 0 mm 2 m/s 658 mmHg 41%

    Poimâine, 5 Iunie, Vineri

    Timp Temperatura Precipitaţii Vânt Presiune Umiditate
    00:00 +16°C° 0 mm 2 m/s 658 mmHg 42%
    01:00 +16°C° 0 mm 2 m/s 658 mmHg 43%
    02:00 +15°C° 0 mm 2 m/s 658 mmHg 45%
    03:00 +15°C° 0 mm 2 m/s 658 mmHg 46%
    04:00 +16°C° 0 mm 1 m/s 658 mmHg 48%
    05:00 +16°C° 0 mm 1 m/s 659 mmHg 50%
    06:00 +18°C° 0 mm 1 m/s 659 mmHg 52%
    07:00 +20°C° 0 mm 1 m/s 659 mmHg 47%
    08:00 +21°C° 0 mm 2 m/s 660 mmHg 41%
    09:00 +23°C° 0 mm 2 m/s 660 mmHg 35%
    10:00 +24°C° 0 mm 2 m/s 660 mmHg 34%
    11:00 +25°C° 0 mm 3 m/s 660 mmHg 32%
    12:00 +26°C° 0 mm 3 m/s 660 mmHg 30%
    13:00 +26°C° 0 mm 3 m/s 660 mmHg 32%
    14:00 +25°C° 0 mm 4 m/s 659 mmHg 33%
    15:00 +25°C° 0 mm 4 m/s 659 mmHg 35%
    16:00 +24°C° 0.1 mm 3 m/s 659 mmHg 39%
    17:00 +22°C° 0.1 mm 3 m/s 659 mmHg 44%
    18:00 +21°C° 0.1 mm 3 m/s 659 mmHg 48%
    19:00 +20°C° 0 mm 3 m/s 660 mmHg 49%
    20:00 +18°C° 0 mm 2 m/s 660 mmHg 51%
    21:00 +16°C° 0 mm 2 m/s 660 mmHg 52%
    22:00 +16°C° 0 mm 2 m/s 660 mmHg 53%
    23:00 +15°C° 0 mm 2 m/s 660 mmHg 54%

    6 Iunie, Sâmbătă

    Timp Temperatura Precipitaţii Vânt Presiune Umiditate
    00:00 +15°C° 0 mm 2 m/s 660 mmHg 55%
    01:00 +14°C° 0 mm 2 m/s 660 mmHg 56%
    02:00 +14°C° 0 mm 2 m/s 660 mmHg 57%
    03:00 +14°C° 0 mm 2 m/s 660 mmHg 58%
    04:00 +14°C° 0 mm 1 m/s 660 mmHg 58%
    05:00 +15°C° 0 mm 1 m/s 660 mmHg 58%
    06:00 +16°C° 0 mm 1 m/s 661 mmHg 57%
    07:00 +19°C° 0 mm 1 m/s 661 mmHg 53%
    08:00 +21°C° 0 mm 1 m/s 662 mmHg 48%
    09:00 +22°C° 0 mm 1 m/s 662 mmHg 44%
    10:00 +23°C° 0.1 mm 1 m/s 662 mmHg 42%
    11:00 +24°C° 0.1 mm 1 m/s 662 mmHg 39%
    12:00 +26°C° 0.1 mm 1 m/s 662 mmHg 37%
    13:00 +26°C° 0.4 mm 1 m/s 662 mmHg 37%
    14:00 +26°C° 0.4 mm 1 m/s 662 mmHg 37%
    15:00 +26°C° 0.4 mm 1 m/s 661 mmHg 37%
    16:00 +26°C° 0.2 mm 2 m/s 661 mmHg 41%
    17:00 +25°C° 0.2 mm 3 m/s 661 mmHg 46%
    18:00 +23°C° 0.2 mm 4 m/s 661 mmHg 50%
    19:00 +21°C° 0 mm 4 m/s 661 mmHg 53%
    20:00 +20°C° 0 mm 4 m/s 661 mmHg 56%
    21:00 +18°C° 0 mm 4 m/s 661 mmHg 60%
    22:00 +17°C° 0 mm 3 m/s 661 mmHg 59%
    23:00 +16°C° 0 mm 3 m/s 661 mmHg 58%

    7 Iunie, Duminică

    Timp Temperatura Precipitaţii Vânt Presiune Umiditate
    00:00 +14°C° 0 mm 3 m/s 660 mmHg 57%
    01:00 +15°C° 0 mm 2 m/s 660 mmHg 56%
    02:00 +15°C° 0 mm 2 m/s 660 mmHg 56%
    03:00 +14°C° 0 mm 2 m/s 660 mmHg 55%
    04:00 +15°C° 0 mm 2 m/s 660 mmHg 56%
    05:00 +16°C° 0 mm 2 m/s 660 mmHg 57%
    06:00 +16°C° 0 mm 2 m/s 661 mmHg 58%
    07:00 +18°C° 0 mm 2 m/s 661 mmHg 54%
    08:00 +20°C° 0 mm 2 m/s 661 mmHg 49%
    09:00 +23°C° 0 mm 2 m/s 661 mmHg 45%
    10:00 +24°C° 0 mm 2 m/s 661 mmHg 42%
    11:00 +25°C° 0 mm 2 m/s 661 mmHg 40%
    12:00 +26°C° 0 mm 1 m/s 662 mmHg 38%
    13:00 +27°C° 0.1 mm 1 m/s 661 mmHg 37%
    14:00 +27°C° 0.1 mm 1 m/s 661 mmHg 36%
    15:00 +27°C° 0.1 mm 1 m/s 661 mmHg 35%
    16:00 +27°C° 0.2 mm 1 m/s 660 mmHg 39%
    17:00 +26°C° 0.2 mm 1 m/s 660 mmHg 43%
    18:00 +26°C° 0.2 mm 1 m/s 660 mmHg 47%
    19:00 +24°C° 0.1 mm 2 m/s 660 mmHg 51%
    20:00 +21°C° 0.1 mm 2 m/s 659 mmHg 56%
    21:00 +18°C° 0.1 mm 2 m/s 659 mmHg 60%
    22:00 +18°C° 0 mm 2 m/s 659 mmHg 60%
    23:00 +17°C° 0 mm 2 m/s 659 mmHg 60%

    8 Iunie, Luni

    Timp Temperatura Precipitaţii Vânt Presiune Umiditate
    00:00 +17°C° 0 mm 2 m/s 659 mmHg 60%
    01:00 +16°C° 0 mm 2 m/s 659 mmHg 61%
    02:00 +16°C° 0 mm 2 m/s 658 mmHg 61%
    03:00 +15°C° 0 mm 2 m/s 658 mmHg 62%
    04:00 +16°C° 0 mm 1 m/s 658 mmHg 62%
    05:00 +18°C° 0 mm 1 m/s 658 mmHg 61%
    06:00 +19°C° 0 mm 1 m/s 659 mmHg 61%
    07:00 +21°C° 0 mm 1 m/s 659 mmHg 57%
    08:00 +22°C° 0 mm 1 m/s 659 mmHg 52%
    09:00 +24°C° 0 mm 1 m/s 659 mmHg 47%
    10:00 +25°C° 0 mm 1 m/s 659 mmHg 45%
    11:00 +26°C° 0 mm 2 m/s 659 mmHg 42%
    12:00 +27°C° 0 mm 2 m/s 659 mmHg 39%
    13:00 +28°C° 0.2 mm 1 m/s 659 mmHg 36%
    14:00 +28°C° 0.2 mm 1 m/s 659 mmHg 34%
    15:00 +29°C° 0.2 mm 1 m/s 659 mmHg 31%
    16:00 +29°C° 0.1 mm 1 m/s 659 mmHg 34%
    17:00 +26°C° 0.1 mm 0 m/s 658 mmHg 36%
    18:00 +26°C° 0.1 mm 0 m/s 658 mmHg 39%
    19:00 +26°C° 0.1 mm 1 m/s 658 mmHg 43%
    20:00 +23°C° 0.1 mm 2 m/s 658 mmHg 48%
    21:00 +20°C° 0.1 mm 3 m/s 657 mmHg 52%
    22:00 +19°C° 0.2 mm 3 m/s 657 mmHg 53%
    23:00 +19°C° 0.2 mm 3 m/s 657 mmHg 54%
    Arată mai mult